World > North America > United States > Wisconsin

Mellen, Wisconsin Regional Weather

Lat: 46.32N, Lon: 90.66W
Wx Zone: WIZ003
Feedback

Mellen, WI Regional Weather

Expires:202007122200;;750139
ASUS43 KMKX 122121
RWRWI 

WISCONSIN REGIONAL WEATHER ROUNDUP
NATIONAL WEATHER SERVICE MILWAUKEE/SULLIVAN WI
400 PM CDT SUN JUL 12 2020

NOTE: "FAIR" INDICATES FEW OR NO CLOUDS BELOW 12,000 FEET WITH NO
SIGNIFICANT WEATHER AND/OR OBSTRUCTIONS TO VISIBILITY.


WIZ003>005-009-010-017-018-122200-
NORTH CENTRAL WISCONSIN
  
CITY           SKY/WX    TMP DP  RH WIND       PRES   REMARKS
MANITOWISH WTR MOSUNNY   74  54  48 N8        29.97F                  
ARBOR VITAE    PTSUNNY   74  56  53 NE6       29.97S                  
WOODRUFF       PTSUNNY   74  56  53 NE6       29.97S                  
RHINELANDER    MOSUNNY   76  53  44 N9        29.97S                  
EAGLE RIVER    MOSUNNY   74  49  40 N10G17    29.96S                  
LAND O LAKES   SUNNY     73  49  43 N10       29.99S                  
PHILLIPS       CLOUDY    74  55  52 N8        29.97R                  
TOMAHAWK       PTSUNNY   72  53  51 CALM      29.97S                  
MEDFORD        PTSUNNY   74  56  54 NW6       29.97S                  
MERRILL        MOSUNNY   76  55  48 N7        29.96S                  
$$
 

SKY/WX - Weather  TMP - Temperature  DP - Dew Point  RH - Relative Humidity
WIND - Wind Direction/Speed PRES - Barometric Pressure VSB - Visibility
WCI - Wind Chill Index E13G22 Wind - East Wind 13 mph/Gusts of 22 mph
Mellen Weather Map
UTC Time: 7/12/2020, 21:50
Your Time: